Preview of NWS' New Version of Forecast
This preview is not operational and should not be used for support decisions.

Regional Weather Roundup (RWR)

Issued by National Weather Service (NWS)

                            
000
ASUS45 KABQ 191510
RWRNM 
NEW MEXICO REGIONAL WEATHER ROUNDUP
NATIONAL WEATHER SERVICE ALBUQUERQUE NM
800 AM MST TUE FEB 19 2019

NOTE: "FAIR" MEANS FEW OR NO CLOUDS BELOW 12,000 FEET AGL WITH NO
       SIGNIFICANT WEATHER OR OBSTRUCTIONS TO VISION.

      THIS PRODUCT IS RELEASED AS TWO VERSIONS.  ONE VERSION NEAR
      THE TOP OF THE HOUR CONTAINING PRELIMINARY DATA FROM ALBUQUERQUE
      AND OTHER STATIONS.  A FINAL VERSION WITH ADDITIONAL DATA IS 
      ISSUED ABOUT 10 MINUTES AFTER THE HOUR.
 
NMZ501-503-504-510>518-191600-
NORTHWEST PLATEAU/NORTHCENTRAL MOUNTAINS
  
CITY           SKY/WX    TMP DP  RH WIND       PRES   REMARKS
FARMINGTON     LGT SNOW  23  20  88 SE7       29.80R FOG     WCI  15  
LOS ALAMOS     LGT SNOW  13  10  87 SW8       29.80F WCI   2          
SANTA FE       LGT SNOW  18  12  77 SE18      29.83F WCI   2          
TAOS           LGT SNOW  17  13  84 SW8       29.82S VSB 1   WCI   7  
ANGEL FIRE       N/A      4   0  82 NE6       29.76S WCI  -7          

$$
NMZ402-403-502-505>509-191600-
WESTCENTRAL MOUNTAINS/SOUTHWEST MOUNTAINS
  
CITY           SKY/WX    TMP DP  RH WIND       PRES   REMARKS
GALLUP         CLOUDY    18  16  92 SE3       29.79S                  
GRANTS         LGT SNOW  19  16  88 S10       29.81S WCI   7          
SILVER CITY    PTSUNNY   27  20  77 NW9       29.83S WCI  18          

$$
NMZ407-409-411-412-191600-
SOUTHERN DESERTS
  
CITY           SKY/WX    TMP DP  RH WIND       PRES   REMARKS
DEMING         CLOUDY    34  28  79 S6        29.86R WCI  29          
LAS CRUCES     CLOUDY    34  23  64 S5        29.88S WCI  30          
HOLLOMAN AFB   CLOUDY    30  17  57 CALM      29.92R                  
ALAMOGORDO     PTSUNNY   28  18  64 CALM      29.90R                  
T OR C         CLOUDY    32  18  56 N7        29.83R WCI  26          

$$
NMZ519>523-191600-
CENTRAL VALLEYS/CENTRAL HIGHLANDS
  
CITY           SKY/WX    TMP DP  RH WIND       PRES   REMARKS
ALBUQUERQUE    SNOW      21  12  68 E17G28    29.86R VSB 1/2 WCI   7  
DOUBLE EAGLE   LGT SNOW  18  16  93 SE3       29.85R VSB 1            
MORIARTY ARPT  LGT SNOW  17  14  86 SE10      29.87F WCI   5          
CLINES CORNERS LGT SNOW  11   7  84 E17       29.81F FOG     WCI  -6  
BELEN          LGT SNOW  22  21  94 NW9       29.87R VSB 1   WCI  12  
SOCORRO        CLOUDY    25  19  76 N10       29.86R WCI  15          

$$
NMZ524>526-539-540-191600-
SOUTHCENTRAL MOUNTAINS
  
CITY           SKY/WX    TMP DP  RH WIND       PRES   REMARKS
RUIDOSO        NOT AVBL                                               

$$
NMZ527>531-191600-
NORTHEAST HIGHLANDS/NORTHEAST PLAINS
  
CITY           SKY/WX    TMP DP  RH WIND       PRES   REMARKS
LAS VEGAS      LGT SNOW  11   8  88 SE5       29.85S FOG     WCI   3  
RATON          LGT SNOW  11   7  84 W5        29.88S FOG     WCI   3  
CLAYTON        LGT SNOW  13  10  88 S9        29.98S FOG     WCI   1  

$$
NMZ532>537-191600-
EASTCENTRAL PLAINS
  
CITY           SKY/WX    TMP DP  RH WIND       PRES   REMARKS
SANTA ROSA     LGT SNOW  18  15  88 E6        29.97F WCI  10          
TUCUMCARI      CLOUDY    21  11  65 E8        30.01S WCI  11          
CANNON AFB     LGT SNOW  19  12  73 E7        30.01S FOG     WCI  10  
CLOVIS AIRPORT FLURRIES  19  13  77 E9        30.02S WCI   8          

$$
NMZ028-029-538-191600-
SOUTHEAST PLAINS
  
CITY           SKY/WX    TMP DP  RH WIND       PRES   REMARKS
ROSWELL        CLOUDY    26  16  65 E5        30.00S WCI  20          
ARTESIA        CLOUDY    27  16  63 CALM      30.02S                  
CARLSBAD       CLOUDY    26  14  60 NE7       30.01S WCI  18          
HOBBS          CLOUDY    25  16  68 NE12      30.00F WCI  14          


$$